Terminal Aerodrome Forecast
Issued by NWS Houston/Galveston, TX

Home | Current Version | Previous Version | Text Only | Print | Product List | Glossary On
Versions: 1 2 3 4 5 6 7 8 9 10 11 12 13 14 15 16 17 18 19 20 21 22 23 24 25
000
FTUS44 KHGX 231124
TAFGLS
TAF
KGLS 231124Z 2312/2412 20004KT P6SM SKC
     FM231700 16010KT P6SM SCT025
     FM240900 20008KT P6SM FEW020=

USA.gov is the U.S. government's official web portal to all federal, state and local government web resources and services.